User: anonymous   Login
Location: Unspecified
(0.0000°N, 0.0000°E)
Time: 07:00:45
(UTC+00:00)
Language:

PLEIADES HR1 - Orbit

View from above orbital plane
View from above orbital plane
View from above satellite
View from above satellite

Ground track
Ground track

The orbit data is extracted from the following two-line orbital elements,

1 38012U 11076F   16275.16643192  .00000034  00000-0  17183-4 0  9993
2 38012  98.1925 348.0504 0001360  69.4874 290.6478 14.58550624255101
Epoch (UTC): 01 October 2016 03:59:39
Eccentricity: 0.0001360
inclination: 98.1925°
perigee height: 697 km
apogee height: 699 km
right ascension of ascending node: 348.0504°
argument of perigee: 69.4874°
revolutions per day: 14.58550624
mean anomaly at epoch: 290.6478°
orbit number at epoch: 25510

The dashed part of the orbit path shows where the satellite is in the earth's shadow,  

DLR